Weather History for Piarco, Trinidad And Tobago

Change the Weather History Date:

Tuesday, March 18, 2014

  Actual Average Record
Temperature  
Mean Temperature 82 °F -  
Max Temperature 91 °F 88 °F 91 °F (2014)
Min Temperature 73 °F 72 °F 68 °F (2009)
Cooling Degree Days 17    
Growing Degree Days 32 (Base 50)    
Moisture  
Dew Point 71 °F    
Average Humidity 69    
Maximum Humidity 89    
Minimum Humidity 43    
Precipitation  
Precipitation 0.00 in 0.06 in - ()
Sea Level Pressure  
Sea Level Pressure 29.93 in    
Wind  
Wind Speed 7 mph ()    
Max Wind Speed 18 mph    
Max Gust Speed -    
Visibility 7.5 miles    
Events      
Averages and records for this station are not official NWS values.
T = Trace of Precipitation, MM = Missing Value Source: Averaged Metar Reports

Daily Weather History Graph

Daily Weather History Graph

Search for Another Location

Airport:

Trip Planner

Search our weather history database for the weather conditions in past years. The results will help you decide how hot, cold, wet, or windy it might be!

Date:

Astronomy

Mar. 18, 2014 Rise Set
Actual Time 6:10 AM AST 6:16 PM AST
Civil Twilight 5:49 AM AST 6:37 PM AST
Nautical Twilight 5:25 AM AST 7:01 PM AST
Astronomical Twilight 5:00 AM AST 7:26 PM AST
Moon 7:59 PM AST (3/18) 7:20 AM AST (3/18)
Length of Visible Light 12h 47m
Length of Day
12h 05m
Waning Gibbous, 96% of the Moon is Illuminated
Mar 18
Waning Gibbous
Mar 23
Last Quarter
Mar 30
New
Apr 7
First Quarter
Apr 15
Full

Hourly Weather History & Observations

Time (AST) Temp. Heat Index Dew Point Humidity Pressure Visibility Wind Dir Wind Speed Gust Speed Precip Events Conditions
12:00 AM 77.0 °F - 71.6 °F 83% 29.92 in 6.2 mi ESE 3.5 mph - N/A   Partly Cloudy
1:00 AM 75.2 °F - 71.6 °F 89% 29.89 in 6.2 mi ESE 3.5 mph - N/A   Partly Cloudy
2:00 AM 76 °F - 71 °F 81% 29.90 in 14 mi ESE 4.6 mph - -   Clear
2:00 AM 77.0 °F - 71.6 °F 83% 29.89 in - ESE 4.6 mph - N/A   Unknown
3:00 AM 75.2 °F - 71.6 °F 89% 29.89 in 6.2 mi East 3.5 mph - N/A   Partly Cloudy
4:00 AM 73.4 °F - 69.8 °F 88% 29.89 in 6.2 mi SE 3.5 mph - N/A   Partly Cloudy
5:00 AM 90 °F - 71 °F 43% 29.91 in 14 mi Calm Calm - -   Scattered Clouds
5:00 AM 73.4 °F - 69.8 °F 88% 29.89 in 6.2 mi Calm Calm - N/A   Partly Cloudy
6:00 AM 75.2 °F - 71.6 °F 89% 29.92 in 6.2 mi Calm Calm - N/A   Partly Cloudy
7:00 AM 77.0 °F - 71.6 °F 83% 29.95 in 6.2 mi Calm Calm - N/A   Partly Cloudy
8:00 AM 83 °F - 73 °F 64% 29.98 in 11 mi East 10.4 mph - -   Haze
8:00 AM 82.4 °F 88.2 °F 73.4 °F 74% 29.98 in 6.2 mi East 10.4 mph - N/A   Partly Cloudy
9:00 AM 84.2 °F 89.6 °F 71.6 °F 66% 29.98 in 6.2 mi East 15.0 mph - N/A   Mostly Cloudy
10:00 AM 87.8 °F 93.8 °F 71.6 °F 58% 30.01 in 6.2 mi East 18.4 mph - N/A   Mostly Cloudy
11:00 AM 90 °F - 71 °F 44% 29.99 in 10 mi East 15.0 mph - -   Haze
11:00 AM 89.6 °F 94.7 °F 69.8 °F 52% 29.98 in 6.2 mi ESE 17.3 mph - N/A   Scattered Clouds
12:00 PM 89.6 °F 94.7 °F 69.8 °F 52% 29.95 in 6.2 mi ESE 16.1 mph - N/A   Scattered Clouds
1:00 PM 87.8 °F 93.8 °F 71.6 °F 58% 29.95 in 6.2 mi East 16.1 mph - N/A   Scattered Clouds
2:00 PM 90 °F - 71 °F 43% 29.92 in 11 mi East 16.1 mph - -   Partly Cloudy
2:00 PM 89.6 °F 94.7 °F 69.8 °F 52% 29.92 in 6.2 mi East 16.1 mph - N/A   Scattered Clouds
3:00 PM 89.6 °F 94.7 °F 69.8 °F 52% 29.89 in 6.2 mi East 16.1 mph - N/A   Scattered Clouds
4:00 PM 87.8 °F 93.8 °F 71.6 °F 58% 29.89 in 6.2 mi East 13.8 mph - N/A   Scattered Clouds
5:00 PM 86 °F - 71 °F 53% 29.89 in 9 mi East 16.1 mph - -   Mostly Cloudy
5:00 PM 86.0 °F 91.8 °F 71.6 °F 62% 29.89 in 6.2 mi East 16.1 mph - N/A   Scattered Clouds
6:00 PM 82.4 °F 87.2 °F 71.6 °F 70% 29.89 in 6.2 mi East 13.8 mph - N/A   Scattered Clouds
7:00 PM 80.6 °F 83.9 °F 69.8 °F 70% 29.92 in 6.2 mi East 8.1 mph - N/A   Scattered Clouds
8:00 PM 80 °F - 71 °F 68% 29.94 in 11 mi East 8.1 mph - -   Partly Cloudy
8:00 PM 80.6 °F 84.6 °F 71.6 °F 74% 29.92 in 6.2 mi East 8.1 mph - N/A   Scattered Clouds
9:00 PM 78.8 °F - 73.4 °F 83% 29.92 in 6.2 mi East 5.8 mph - N/A   Partly Cloudy
10:00 PM 78.8 °F - 71.6 °F 78% 29.95 in 6.2 mi Calm Calm - N/A   Mostly Cloudy
11:00 PM 80 °F - 72 °F 72% 29.96 in 11 mi East 6.9 mph - -   Mostly Cloudy
11:00 PM 78.8 °F - 73.4 °F 83% 29.95 in 6.2 mi East 6.9 mph - N/A   Scattered Clouds